Location: Dana
(41.8364°N, 106.7042°W)
Time: 01:19:43
(UTC+00:00)

Altair - Visible Passes

Search period start: 12 May 2026 00:00
Search period end: 22 May 2026 00:00
Orbit: 1501 x 1682 km, 47.2° (Epoch: 11 May)

Date Brightness Start Highest point End Pass type
(mag) Time Alt. Az. Time Alt. Az. Time Alt. Az.
12 May 9.4 10:00:26 10° SSE 10:04:49 14° ESE 10:09:13 10° E visible
13 May 9.5 09:36:38 10° SE 09:39:44 12° ESE 09:42:51 10° ESE visible
14 May 8.4 11:08:17 10° SSW 11:17:24 45° SE 11:26:46 10° ENE visible
15 May 8.5 10:43:18 10° SSW 10:52:13 41° SE 11:01:24 10° ENE visible
16 May 8.5 10:18:35 11° SSW 10:27:04 38° SE 10:36:00 10° ENE visible
17 May 8.5 09:54:45 14° S 10:01:54 35° SE 10:10:35 10° ENE visible
18 May 8.6 09:30:52 17° S 09:36:46 32° SE 09:45:09 10° ENE visible
19 May 8.6 09:06:56 20° S 09:11:38 29° SE 09:19:42 10° ENE visible
19 May 7.8 11:05:34 10° SW 11:15:22 79° SSE 11:25:31 10° ENE visible
20 May 8.7 08:42:56 21° SSE 08:46:31 26° SE 08:54:12 10° ENE visible
20 May 7.7 10:40:56 12° SW 10:50:07 74° SSE 11:00:12 10° ENE visible
21 May 8.7 08:18:53 21° SSE 08:21:24 24° SE 08:28:39 10° E visible
21 May 7.7 10:16:53 17° SW 10:24:53 70° SE 10:34:54 10° ENE visible
